Presure
188 194 197 212 183 176 189 167 206 191 204 193 202 198 203 206 205 204 207 206 224 211 205 199 199 192 191 193 202 202 202 186 199 205 165 168 114 119 122 109 145 139 145 119 109 118 117 121 129
202 204 218 172 182 175 174 165 149 152 157 159 207 223 216 214 205 201 212 202 210 219 227 222 216 202 205 200 212 209 204 196 194 197 201 207 218 194 166 178 184 148 115 113 139 133 118 126 117
203 146 186 193 169 163 165 168 166 163 170 183 188 188 205 206 222 222 191 197 195 197 192 194 196 198 200 197 198 201 204 204 205 204 202 209 203 207 204 204 172 191 168 136 151 122 118 130 130
166 184 165 175 175 175 165 165 150 169 167 167 170 176 179 176 202 211 217 212 110 109 176 180 120 190 120 192 202 208 194 192 213 208 203 206 219 196 205 206 215 211 221 169 152 167 134 106 140
130 132 174 155 158 177 196 186 161 164 149 165 152 155 172 175 193 212 214 210 196 205 207 217 149 212 204 203 177 178 137 199 196 196 199 202 219 214 208 225 216 221 218 226 236 185 146 139 127
175 183 159 172 168 133 173 164 131 154 165 169 165 160 157 168 167 173 195 211 214 211 213 222 209 219 214 231 235 233 230 228 224 217 224 229 219 210 217 218 218 223 242 211 234 242 211 174 167
173 135 171 182 136 167 182 166 168 166 165 167 166 162 161 181 186 194 206 222 218 223 222 227 219 227 234 239 203 224 233 243 228 240 238 233 228 219 226 224 223 227 226 237 229 230 237 237 181
162 191 170 183 182 174 188 166 133 144 161 208 144 147 177 186 97 220 227 226 218 218 218 217 221 219 218 220 202 200 234 238 229 237 248 236 229 220 212 217 217 219 225 224 223 234 226 231 241
172 151 172 187 190 185 179 184 173 181 161 167 143 160 133 167 207 234 117 223 220 219 214 216 205 216 221 217 214 214 218 226 232 228 223 229 236 236 233 234 237 247 256 246 240 216 217 225 235
161 174 146 179 187 188 182 172 177 176 174 166 190 147 184 201 236 227 223 194 143 231 230 226 227 229 224 216 214 224 226 227 189 223 222 222 222 223 224 226 228 228 229 232 226 215 219 218 225
158 135 176 158 187 186 185 157 159 192 195 187 137 172 147 235 115 206 150 210 212 219 248 244 234 238 236 237 238 238 235 228 214 229 228 207 226 232 235 232 226 226 224 223 227 235 243 221 217
125 174 162 184 192 188 187 162 189 189 95 166 193 196 215 231 229 242 116 233 246 167 236 236 234 237 240 244 241 236 231 228 229 233 234 232 233 233 234 234 234 237 238 237 239 240 237 233 226
176 168 180 186 186 193 195 172 182 195 195 181 90 200 231 229 234 236 248 182 246 236 227 234 248 259 263 266 259 253 253 251 250 245 240 237 235 235 238 240 238 239 241 241 234 236 239 241 236
185 114 174 178 176 187 186 193 191 187 178 173 191 223 233 222 223 233 238 230 245 238 231 230 137 191 226 222 226 230 232 233 231 228 243 262 257 256 251 249 252 255 250 246 244 240 238 234 237
156 114 172 134 185 189 198 187 196 168 181 191 195 237 214 247 101 239 233 230 225 224 96 244 225 227 241 243 256 262 279 281 277 273 230 227 223 279 278 279 291 269 225 259 270 259 248 242 240
123 188 181 188 186 183 199 187 197 185 189 204 240 238 243 232 234 237 240 235 235 242 238 242 244 247 260 275 286 286 283 287 294 296 289 279 268 268 278 273 275 281 289 294 294 296 271 272 273
185 180 154 123 146 185 202 199 195 188 201 228 264 249 252 281 328 317 316 313 356 294 280 272 273 270 283 282 266 266 280 276 272 269 270 270 261 258 278 276 273 257 285 270 274 281 290 297 298
165 149 181 186 195 163 179 198 195 206 235 231 235 266 398 387 387 377 332 314 314 310 323 297 268 274 270 302 293 292 254 254 279 286 300 290 283 270 264 267 264 266 267 273 279 285 295 301 308
179 148 184 182 189 175 189 190 195 206 245 229 241 301 161 305 297 285 278 301 291 304 323 281 268 267 298 280 274 267 299 241 231 229 236 307 316 319 308 282 276 277 287 315 325 326 325 301 267
184 192 168 192 154 189 191 193 194 215 242 239 242 278 265 250 237 253 261 254 253 257 273 270 261 250 239 245 283 264 259 262 261 261 257 256 252 248 250 248 248 244 252 257 260 266 275 326 332
180 166 183 193 194 192 181 184 188 245 234 244 253 284 264 251 287 318 284 329 341 318 262 263 293 281 261 252 246 241 239 236 233 232 231 232 233 232 230 236 240 240 238 240 245 250 241 252 267
185 184 153 160 156 195 171 193 209 232 239 240 248 281 262 296 298 305 301 306 305 302 300 268 252 241 233 227 225 224 224 223 224 222 224 227 228 229 230 231 235 236 234 235 235 242 248 246 246
130 188 163 177 188 191 190 206 227 234 245 231 288 272 252 346 307 287 278 263 256 247 236 227 225 221 218 216 215 217 220 224 235 242 246 242 237 236 236 238 240 244 248 233 238 234 240 242 249
170 150 183 200 189 191 197 225 237 219 234 230 241 261 335 301 275 260 243 238 233 226 223 223 216 210 211 212 207 238 248 245 232 228 220 226 224 231 240 238 232 236 239 237 239 248 242 239 244
177 158 164 205 198 190 210 239 231 221 240 234 290 286 293 279 255 242 235 234 218 219 217 213 213 212 203 218 234 233 223 222 223 227 236 243 252 260 263 266 247 233 235 238 239 234 246 249 247
197 174 185 197 185 198 237 229 236 226 244 238 278 289 290 259 244 235 226 218 216 221 204 206 204 205 206 209 232 217 222 224 221 251 260 272 274 242 240 250 262 270 273 266 255 252 243 249 253
117 188 136 191 196 222 229 224 232 231 242 243 264 306 280 249 235 224 217 215 212 203 203 203 197 194 207 233 218 214 217 239 250 269 269 258 318 373 383 394 387 390 418 399 427 323 293 252 250
147 197 195 196 215 229 231 234 235 235 221 306 258 300 257 237 230 223 219 213 215 203 201 202 194 199 242 225 214 214 228 248 263 261 296 359 350 350 350 343 342 345 355 398 409 427 395 304 261
191 195 201 213 229 230 226 243 237 225 256 304 258 291 249 233 224 215 214 209 205 202 194 190 194 202 235 220 217 210 245 256 259 343 332 328 323 323 326 343 340 345 363 369 406 393 425 390 310
182 207 213 233 228 222 237 244 236 237 337 287 289 267 244 230 223 215 211 210 205 196 203 202 200 206 229 221 208 236 253 259 324 318 318 314 322 332 349 361 352 350 351 370 395 385 410 393 377
Wind_Speed
31 33 32 28 26 29 30 33 33 32 35 41 46 50 52 54 58 57 56 55 57 61 62 63 64 65 67 69 67 65 64 67 65 65 72 72 54 56 63 55 69 68 68 60 52 58 55 56 60
32 32 31 21 28 28 28 30 34 40 40 40 45 48 51 55 59 61 58 57 53 51 56 58 63 67 68 67 70 70 68 66 67 68 67 68 66 74 74 77 79 72 58 55 70 67 60 65 56
27 23 28 33 23 28 29 29 32 38 36 43 47 49 51 54 58 58 53 54 55 55 58 57 57 61 65 67 68 68 67 67 66 66 67 67 70 70 74 77 79 77 80 72 73 64 61 69 68
22 27 12 19 22 33 34 30 38 35 39 40 45 50 51 50 60 58 58 62 35 34 63 65 38 66 33 68 69 72 70 70 73 69 68 68 68 74 75 75 74 78 75 82 79 82 74 52 76
23 26 25 27 28 36 46 44 35 39 46 44 53 50 53 57 68 65 60 60 58 63 66 68 53 71 72 73 64 64 45 72 71 72 73 73 75 74 73 75 77 72 75 73 71 85 80 75 71
32 33 31 29 29 42 42 45 41 43 45 48 51 54 56 61 58 60 70 72 71 71 72 72 70 72 71 73 72 73 76 80 81 79 82 79 77 74 75 75 74 73 77 80 71 69 86 91 87
33 29 35 38 40 37 40 41 42 45 46 50 54 55 59 72 73 76 76 73 73 74 71 69 69 69 69 72 65 68 72 77 76 78 77 78 78 78 79 77 77 77 74 75 71 73 75 78 96
37 37 39 41 42 43 43 44 50 50 50 60 58 58 70 75 32 79 69 66 65 67 68 68 69 70 70 69 67 67 74 74 72 75 79 79 79 76 74 76 76 77 78 73 73 73 73 73 77
40 39 43 45 43 46 47 48 54 59 55 61 57 64 55 67 84 70 30 61 62 63 65 68 65 70 71 70 69 69 71 72 74 73 72 75 78 81 81 81 81 84 83 79 75 75 74 72 74
38 44 37 46 48 48 49 51 53 57 62 65 69 59 71 80 74 67 62 60 37 65 66 66 69 72 73 73 72 73 73 74 67 75 75 76 76 76 76 76 76 76 76 77 78 78 76 75 75
46 34 48 46 51 52 54 51 55 62 66 65 58 67 53 77 44 64 38 57 58 58 67 68 68 70 72 74 72 72 72 74 74 78 79 74 80 81 82 82 79 78 77 77 78 79 78 76 76
28 49 46 53 55 56 57 56 60 64 22 59 74 79 87 76 71 68 41 59 60 43 64 67 68 69 71 70 69 70 72 74 77 79 80 81 82 83 83 83 82 81 80 78 78 78 78 78 77
51 52 51 55 55 60 60 56 60 67 67 71 33 90 81 76 72 70 62 42 58 59 63 65 66 69 71 70 68 70 73 75 77 78 80 81 82 82 83 84 83 83 83 81 79 80 79 80 79
55 38 52 55 57 64 63 67 66 63 67 71 86 87 75 74 74 73 70 65 58 58 62 65 36 54 66 68 69 69 69 70 74 76 76 76 79 80 81 83 83 84 85 85 83 83 82 81 81
55 41 56 49 62 65 67 66 68 62 71 78 83 70 73 69 27 67 69 67 67 70 18 74 70 66 67 69 73 72 76 75 75 73 75 78 80 72 70 71 70 77 81 78 78 83 86 87 85
35 60 59 63 63 62 69 66 65 64 70 82 70 66 65 65 68 67 66 67 67 71 71 74 74 73 74 72 71 68 65 65 67 67 68 69 70 70 68 67 68 68 68 67 69 70 79 80 82
66 62 52 45 55 67 71 70 65 66 81 79 62 59 60 52 49 58 59 56 42 59 66 65 65 64 60 60 62 61 59 59 59 61 63 63 63 65 61 62 63 70 62 68 68 68 69 69 71
57 57 63 67 74 62 65 73 74 83 82 68 62 62 39 38 35 29 20 23 27 31 24 27 50 57 57 45 41 38 56 59 51 52 49 50 52 53 52 52 53 55 56 56 57 58 58 58 58
64 55 67 68 71 62 75 71 74 82 77 71 67 43 34 34 32 32 36 25 27 30 29 39 42 48 32 33 36 37 36 44 47 49 50 45 45 42 38 29 35 37 33 42 47 50 55 58 60
66 70 61 74 60 76 74 79 81 84 76 71 67 44 46 46 49 41 32 34 34 29 21 19 23 30 34 34 25 21 25 27 28 29 31 33 35 38 39 40 41 43 43 44 44 43 38 45 51
65 59 68 74 75 74 67 76 77 80 74 69 62 40 42 42 38 33 34 29 33 33 29 27 20 16 16 20 25 29 31 32 34 35 36 38 38 40 41 43 45 46 47 49 49 47 45 42 37
67 65 56 61 65 73 66 84 89 82 74 68 62 42 44 38 29 22 19 20 20 16 14 13 15 20 22 25 29 32 35 36 40 42 44 45 46 46 46 46 47 49 51 51 52 51 50 48 45
43 67 60 69 76 76 78 87 88 75 69 65 48 47 45 35 19 16 14 14 14 14 15 16 18 20 22 24 27 31 36 39 45 48 49 51 53 53 53 51 50 49 52 55 56 57 55 53 50
58 53 69 75 75 76 83 84 74 66 66 59 56 45 33 20 15 17 16 16 14 14 16 17 18 21 25 29 30 45 46 46 47 50 50 54 55 59 61 60 57 55 55 56 57 60 62 60 55
63 54 62 75 74 76 82 72 70 65 64 58 46 41 24 11 15 14 14 15 19 19 20 23 25 27 30 41 49 44 49 53 55 58 61 65 69 72 74 74 66 61 60 61 62 62 63 65 63
71 66 66 72 69 79 74 70 66 64 61 56 45 33 15 15 12 15 19 20 19 21 23 26 28 34 38 41 48 48 54 56 57 67 71 74 74 68 71 76 81 86 85 81 74 71 67 67 67
33 69 52 70 77 80 73 64 65 63 58 55 42 20 13 14 16 20 20 20 22 22 25 29 30 35 44 48 49 53 58 66 70 77 76 73 64 57 53 50 49 52 57 66 68 93 86 71 69
49 74 72 77 80 76 71 68 65 61 53 41 37 12 14 16 16 19 20 22 23 24 28 31 33 41 52 51 54 58 66 73 80 78 69 58 57 57 58 57 58 58 56 56 64 63 80 88 75
64 69 74 76 77 70 68 65 62 56 54 33 32 12 15 16 19 21 21 23 23 27 30 34 36 44 56 57 59 59 75 80 79 63 64 65 64 65 66 67 61 59 58 57 54 61 62 78 89
63 70 71 77 72 65 67 62 60 57 33 29 19 12 12 17 18 21 24 25 26 28 32 39 40 49 61 63 58 71 79 78 72 71 71 74 74 75 75 67 64 62 61 56 51 55 53 69 78
Wind_Direction
294 297 301 309 310 305 314 303 320 314 308 297 299 297 294 289 287 286 285 285 281 276 273 271 271 270 271 273 271 266 262 258 260 259 258 258 263 264 254 261 251 252 248 254 256 255 255 252 245
295 301 297 319 320 310 308 292 282 287 289 293 310 295 292 289 291 291 289 288 285 283 280 278 277 276 275 272 270 271 268 262 260 259 258 259 258 253 253 251 248 248 257 256 249 251 255 253 252
314 295 336 321 314 297 297 301 295 287 306 325 325 323 314 307 294 286 289 286 281 279 278 275 273 273 273 273 272 271 270 268 267 264 261 261 257 257 252 250 251 250 247 251 251 254 254 251 251
298 331 307 325 318 310 288 289 288 301 296 295 305 312 313 301 309 299 289 280 281 282 275 275 278 273 270 271 273 274 267 265 272 265 263 265 266 255 256 253 254 251 253 249 249 249 250 249 249
295 296 319 290 288 314 310 305 300 284 295 291 287 295 305 305 315 307 300 291 287 284 282 280 280 271 273 273 271 270 267 268 266 265 267 266 270 264 261 261 257 255 254 256 258 248 250 252 253
320 326 311 306 300 303 312 308 296 296 294 302 296 293 293 300 304 298 303 302 294 289 286 285 281 279 276 277 274 272 270 270 269 268 267 264 263 264 265 264 264 260 263 251 260 259 246 248 248
313 306 310 314 303 297 306 297 298 296 298 298 296 290 290 305 308 308 304 295 292 290 287 284 280 279 277 273 274 274 271 268 270 266 264 261 262 265 265 265 265 266 262 265 258 255 255 252 245
304 326 309 317 311 302 309 295 294 293 290 297 287 292 301 304 307 306 300 294 292 289 286 284 282 281 281 279 276 274 273 271 272 269 264 263 266 267 267 266 265 265 265 259 256 259 253 253 253
312 308 314 319 318 308 304 302 297 300 295 297 293 297 294 302 309 305 302 295 290 286 283 283 282 281 278 276 275 275 275 274 273 272 271 268 266 264 264 263 264 266 266 266 261 252 251 252 254
315 315 309 321 313 308 302 298 300 299 298 297 301 301 300 308 306 305 302 294 283 285 281 279 279 277 276 276 276 277 276 276 276 274 273 271 269 267 266 266 265 264 263 262 258 253 252 249 251
306 313 316 310 312 312 309 304 301 308 307 304 301 300 308 307 295 302 296 293 290 285 281 280 278 276 275 274 274 274 272 271 271 269 268 270 270 270 270 268 265 264 262 260 260 260 258 251 249
304 314 314 316 318 313 311 304 308 310 304 304 311 312 313 310 307 301 301 289 286 284 283 281 278 275 273 273 273 273 272 272 270 269 268 268 268 267 267 266 266 265 264 263 262 261 259 255 251
312 310 313 317 318 319 317 310 313 316 315 309 319 317 313 309 306 301 296 288 287 284 283 279 277 275 275 275 273 272 271 271 271 270 270 270 269 269 269 269 269 268 266 264 261 259 257 256 253
316 308 315 313 312 320 317 317 314 314 314 316 315 314 309 308 306 301 298 298 294 287 281 280 273 280 280 278 277 273 271 271 272 273 272 270 270 269 268 268 268 267 266 266 265 262 260 258 256
309 312 311 310 317 319 316 314 316 308 314 314 315 310 307 303 308 298 298 298 296 293 296 287 285 282 282 282 282 282 281 281 279 277 269 270 272 273 272 271 271 266 267 264 261 257 259 259 258
289 316 313 316 316 316 316 317 315 312 313 318 315 312 306 304 301 299 295 293 291 287 286 284 285 285 281 279 278 280 280 278 278 276 274 274 274 276 275 273 271 270 267 265 263 263 257 256 255
315 313 315 304 313 318 315 316 316 316 320 318 316 311 307 297 281 284 283 283 286 279 274 275 276 276 275 278 282 283 281 278 278 277 277 276 276 274 273 272 271 271 269 267 265 263 260 259 259
312 316 314 317 319 312 320 320 322 323 321 320 318 319 299 289 289 293 301 297 288 279 269 256 268 276 284 284 283 283 284 284 280 279 277 279 281 282 280 276 271 270 268 266 265 264 261 260 259
313 317 315 316 315 318 319 321 325 325 325 325 326 325 311 330 322 317 308 311 313 311 279 261 282 276 281 280 284 287 289 283 284 285 282 279 281 280 280 279 279 279 277 276 274 271 268 262 259
314 315 315 317 312 319 322 324 325 323 326 326 326 320 316 315 317 314 297 299 300 304 300 289 281 290 300 299 298 298 295 297 294 292 287 286 285 282 283 280 278 276 276 276 274 273 273 275 268
312 313 315 316 317 318 321 323 321 326 325 326 324 318 315 318 321 329 314 327 329 303 300 301 302 308 309 302 306 307 306 304 300 294 290 287 283 281 280 281 281 279 277 277 273 271 266 267 264
309 309 318 321 313 317 321 322 321 325 325 324 326 324 326 330 332 339 354 5 359 344 327 333 327 325 324 318 313 308 304 300 295 291 290 288 285 281 278 275 273 272 272 271 270 271 268 264 259
315 308 315 320 318 319 322 322 322 325 323 325 329 326 326 332 348 8 17 18 17 4 351 335 326 324 321 313 306 308 307 305 303 303 301 298 294 289 285 279 274 271 269 268 266 266 264 262 260
307 303 315 310 315 319 321 320 321 324 324 325 330 329 335 347 358 2 354 1 358 340 331 331 322 308 311 315 306 318 314 311 309 305 300 296 292 289 286 281 276 271 266 262 262 261 260 258 255
308 319 320 313 314 318 319 319 321 323 325 327 331 331 340 352 349 341 341 351 336 338 339 330 328 327 316 333 325 319 321 317 312 306 302 298 295 290 285 282 278 271 267 263 258 255 256 254 253
303 311 315 313 315 315 318 319 318 323 324 328 332 336 338 327 328 330 343 341 334 339 327 332 333 336 332 329 323 325 320 314 311 311 305 300 294 291 289 284 279 275 269 265 258 253 248 248 245
322 309 319 314 314 316 318 318 320 322 325 328 330 332 322 329 330 333 333 328 329 328 332 332 325 319 333 327 329 326 323 321 318 315 310 305 303 300 298 294 290 286 277 262 260 250 246 240 240
315 308 310 312 314 315 316 316 316 320 324 326 324 309 310 323 319 321 321 323 330 330 330 334 326 333 334 333 333 328 323 325 321 316 315 317 315 309 302 291 284 281 279 280 260 256 242 239 231
311 311 309 309 312 312 315 312 315 321 322 322 319 306 306 312 313 314 318 319 328 335 323 323 328 334 338 338 333 332 331 326 322 329 328 325 318 312 306 300 291 287 284 278 266 252 246 235 232
308 308 306 308 307 311 311 311 315 319 319 315 318 284 299 300 306 312 313 325 334 324 335 338 334 340 341 339 338 333 331 330 334 331 329 324 317 311 307 290 285 281 282 275 266 248 244 232 228